Change the Weather History Date:

Thursday, March 14, 2013

  Actual Average (KESC) Record (KESC)
Temperature  
Mean Temperature 21 °F -  
Max Temperature 37 °F 36 °F 49 °F (1964)
Min Temperature 5 °F 19 °F -4 °F (1975)
Degree Days  
Heating Degree Days 44    
Moisture  
Dew Point 12 °F    
Average Humidity 73    
Maximum Humidity 92    
Minimum Humidity 36    
Precipitation  
Precipitation 0.00 in - - ()
Sea Level Pressure  
Sea Level Pressure 30.08 in    
Wind  
Wind Speed 5 mph (WSW)    
Max Wind Speed 13 mph    
Max Gust Speed 17 mph    
Visibility 10 miles    
Events Snow    
Averages and records for this station are not official NWS values.
T = Trace of Precipitation, MM = Missing Value Source: NWS Daily Summary

Daily Weather History Graph

Daily Weather History Graph

Search for Another Location

Airport or City:

Trip Planner

Search our weather history database for the weather conditions in past years. The results will help you decide how hot, cold, wet, or windy it might be!

Date:

Astronomy

Mar. 14, 2013 Rise Set
Actual Time 8:03 AM EDT 7:54 PM EDT
Civil Twilight 7:33 AM EDT 8:24 PM EDT
Nautical Twilight 6:58 AM EDT 8:59 PM EDT
Astronomical Twilight 6:23 AM EDT 9:35 PM EDT
Moon 9:05 AM EDT (3/14) 11:24 PM EDT (3/14)
Length of Visible Light 12h 50m
Length of Day
11h 50m
Waxing Crescent, 9% of the Moon is Illuminated
Mar 14
Waxing Crescent
Mar 19
First Quarter
Mar 27
Full
Apr 3
Last Quarter
Apr 10
New

Hourly Weather History & Observations

Time (EDT) Temp. Windchill Dew Point Humidity Pressure Visibility Wind Dir Wind Speed Gust Speed Precip Events Conditions
12:17 AM 16.2 °F 7.6 °F 11.1 °F 81% 30.17 in 10.0 mi WNW 5.8 mph - N/A   Clear
12:36 AM 15.8 °F 5.1 °F 10.2 °F 79% 30.17 in 10.0 mi WNW 8.1 mph - N/A   Clear
12:57 AM 14.9 °F 5.0 °F 9.5 °F 79% 30.17 in 10.0 mi WNW 6.9 mph - N/A   Scattered Clouds
1:17 AM 14.4 °F 4.3 °F 9.1 °F 80% 30.17 in 10.0 mi WNW 6.9 mph - N/A   Scattered Clouds
1:36 AM 13.6 °F 4.6 °F 8.6 °F 80% 30.17 in 10.0 mi WNW 5.8 mph - N/A   Scattered Clouds
1:57 AM 13.6 °F 4.6 °F 8.8 °F 81% 30.17 in 10.0 mi WNW 5.8 mph - N/A   Scattered Clouds
2:16 AM 12.2 °F 6.1 °F 7.7 °F 82% 30.17 in 10.0 mi NNW 3.5 mph - N/A   Clear
2:37 AM 11.5 °F - 7.7 °F 85% 30.17 in 10.0 mi Calm Calm - N/A   Clear
2:57 AM 9.3 °F - 5.9 °F 86% 30.17 in 10.0 mi Calm Calm - N/A   Clear
3:16 AM 9.1 °F - 6.1 °F 87% 30.17 in 10.0 mi Calm Calm - N/A   Clear
3:37 AM 9.5 °F - 6.4 °F 87% 30.17 in 10.0 mi Calm Calm - N/A   Clear
3:57 AM 8.1 °F - 5.0 °F 87% 30.17 in 10.0 mi Calm Calm - N/A   Clear
4:16 AM 8.6 °F - 5.7 °F 88% 30.16 in 10.0 mi Calm Calm - N/A   Clear
4:37 AM 7.5 °F - 4.5 °F 87% 30.16 in 10.0 mi Calm Calm - N/A   Clear
4:57 AM 7.3 °F - 4.5 °F 88% 30.16 in 10.0 mi Calm Calm - N/A   Clear
5:16 AM 7.0 °F 0.1 °F 4.5 °F 89% 30.15 in 10.0 mi NNW 3.5 mph - N/A   Clear
5:37 AM 7.2 °F - 4.1 °F 87% 30.15 in 10.0 mi Calm Calm - N/A   Clear
5:57 AM 7.2 °F - 4.5 °F 89% 30.15 in 10.0 mi Calm Calm - N/A   Clear
6:50 AM 5.0 °F - 3.2 °F 92% 30.16 in 10.0 mi Calm Calm - N/A   Clear
8:50 AM 5.0 °F - 3.2 °F 92% 30.17 in 10.0 mi Calm Calm - N/A   Clear
9:50 AM 8.6 °F - 6.8 °F 92% 30.17 in 10.0 mi Calm Calm - N/A   Clear
10:50 AM 19.4 °F 14.3 °F 15.8 °F 86% 30.16 in 10.0 mi WSW 3.5 mph - N/A   Clear
11:55 AM 26.6 °F - 15.8 °F 64% 30.13 in 10.0 mi Calm Calm - N/A   Clear
12:50 PM 28.4 °F 23.3 °F 15.8 °F 59% 30.12 in 10.0 mi South 4.6 mph - N/A   Clear
1:50 PM 32.0 °F - 15.8 °F 51% 30.11 in 10.0 mi Calm Calm - N/A   Clear
2:50 PM 33.8 °F 26.4 °F 15.8 °F 48% 30.06 in 10.0 mi SSW 9.2 mph - N/A   Scattered Clouds
3:50 PM 35.6 °F 27.5 °F 14.0 °F 41% 30.05 in 10.0 mi SSW 11.5 mph - N/A   Clear
4:50 PM 35.6 °F 27.5 °F 12.2 °F 38% 30.02 in 10.0 mi SW 11.5 mph - N/A   Scattered Clouds
5:50 PM 37.4 °F 29.3 °F 12.2 °F 36% 29.99 in 10.0 mi SE 12.7 mph 17.3 mph N/A   Mostly Cloudy
6:50 PM 35.6 °F 28.6 °F 14.0 °F 41% 29.94 in 10.0 mi SW 9.2 mph - N/A   Scattered Clouds
7:50 PM 32.0 °F 26.4 °F 14.0 °F 48% 29.93 in 10.0 mi SW 5.8 mph - N/A   Scattered Clouds
8:50 PM 32.0 °F 28.7 °F 17.6 °F 55% 29.92 in 10.0 mi West 3.5 mph - N/A   Mostly Cloudy
9:47 PM 32.0 °F 23.6 °F 21.2 °F 64% 29.89 in 10.0 mi SW 10.4 mph - N/A   Overcast
10:16 PM 33.3 °F 25.7 °F 22.5 °F 65% 29.88 in 10.0 mi WSW 9.2 mph - N/A   Overcast
10:37 PM 32.7 °F 25.7 °F 22.8 °F 67% 29.88 in 10.0 mi WSW 8.1 mph - N/A   Overcast
10:57 PM 32.4 °F 25.3 °F 23.0 °F 68% 29.88 in 10.0 mi West 8.1 mph - N/A   Overcast
11:16 PM 32.4 °F 26.9 °F 23.7 °F 70% 29.88 in 10.0 mi West 5.8 mph - N/A   Overcast
11:37 PM 32.9 °F 26.7 °F 24.4 °F 71% 29.88 in 10.0 mi West 6.9 mph - N/A Snow Light Snow
11:57 PM 32.9 °F 28.5 °F 25.7 °F 75% 29.87 in 7.0 mi West 4.6 mph - N/A Snow Light Snow